Regional Weather Roundup
Issued by NWS

Home | Current Version | Previous Version | Graphics & Text | Print | Product List | Glossary On
Versions: 1 2 3 4 5 6 7 8 9 10 11 12 13 14 15 16 17 18 19 20 21 22 23 24 25 26 27 28 29 30 31 32 33 34 35 36 37 38 39 40 41 42 43 44 45 46 47 48 49 50
000
ASUS43 KLOT 300509
RWRIL

ILLINOIS REGIONAL WEATHER ROUNDUP
NATIONAL WEATHER SERVICE CHICAGO/ROMEOVILLE IL
1200 AM CDT SAT JUL 30 2016

NOTE: "FAIR" INDICATES FEW OR NO CLOUDS BELOW 12,000 FEET WITH NO
SIGNIFICANT WEATHER AND/OR OBSTRUCTIONS TO VISIBILITY.

* THESE STATIONS ARE NOT UNDER NWS QUALITY CONTROL. THEY ALSO MAY NOT
  REPORT WEATHER SUCH AS PRECIPITATION OR FOG.

ILZ001-002-007-009-015-016-024-300600-
NORTHWEST ILLINOIS

CITY           SKY/WX    TMP DP  RH WIND       PRES   REMARKS
MOLINE         CLOUDY    71  67  87 E6        29.95S
STERLING*      CLOUDY    68  67  96 NE7       29.97R
SAVANNA*       MOCLDY    67  65  91 NE3       29.97S
$$

ILZ003-004-008-010-011-017-018-300600-
NORTH CENTRAL ILLINOIS

CITY           SKY/WX    TMP DP  RH WIND       PRES   REMARKS
ROCKFORD       PTCLDY    68  65  90 NE7       29.98S
FREEPORT*      MOCLDY    66  64  94 NE3       29.99S
ROCHELLE*      MOCLDY    67  66  96 NE8       29.97F
DE KALB*       PTCLDY    67  65  94 NE5       29.98S
$$

ILZ005-006-012>014-019>023-300600-
NORTHEAST ILLINOIS

CITY           SKY/WX    TMP DP  RH WIND       PRES   REMARKS
CHICAGO-OHARE  MOCLDY    71  67  87 VRB7      29.95S
CHICAGO-MIDWAY CLOUDY    75  67  76 E12       29.94S
AURORA         CLEAR     68  66  93 N5        29.96R
LANSING*       CLOUDY    71  67  87 NE5       29.94S
JOLIET*        MOCLDY    71  69  94 NE3       29.94S
WAUKEGAN       CLOUDY    70  67  90 NE5       29.96S
DUPAGE AIRPORT PTCLDY    68  65  90 N7        29.95S
KANKAKEE*      PTCLDY    67  65  93 NE3       29.94R
WHEELING       CLOUDY    71  66  84 N5        29.96F
MORRIS*        PTCLDY    68  67  96 CALM      29.93S FOG
ROMEOVILLE*    CLOUDY    70  67  89 NE6       29.95S
NORTHERLY ISL    N/A     74  66  76 NE14        N/A
$$

LMZ740>746-300600-
SOUTHERN LAKE MICHIGAN

STATION/POSITION SKY/WX   TEMP    WIND        PRES    VSBY  WAVE
                          AIR SEA DIR/SP/G                  HT/PER
                          (F)     (DEG/KT/KT) (MB)    (MI)  (FT/S)
SOUTHERN BUOY              72 74   90/ 16/ 19 1014.0R         3/ 4
WILMETTE HARBOR            73 72   80/ 12/ 16   N/A           3/ 5
HARRISON CRIB              74      60/ 18/ 21   N/A
BURNHAM HARBOR             74      50/ 13/ 15   N/A
CALUMET HARBOR             74      40/  9/ 13 1013.4R
BURNS HARBOR               71      80/ 10/ 12 1014.2R
MICHIGAN CITY              70      50/  8/  8   N/A
MICHIGAN CITY 6N           74 76   50/ 14/ 17   N/A           3/ 5
ST. JOSEPH                 71 75   40/ 12/ 16 1013.7S         3
$$

ILZ025>027-034>036-040-047-049-050-058-095>099-300600-
WEST-CENTRAL ILLINOIS

CITY           SKY/WX    TMP DP  RH WIND       PRES   REMARKS
QUINCY         CLEAR     69  67  93 W3        29.96R
GALESBURG*     CLOUDY    66  66  98 CALM      29.95S
MACOMB*        CLEAR     65  65  97 W5        29.96S
JACKSONVILLE*  CLEAR     66  65  94 SW5       29.95R
PITTSFIELD*    CLEAR     68  66  94 CALM      29.97S
$$

ILZ028>032-037-038-041>044-048-051>054-059>061-300600-
CENTRAL ILLINOIS

CITY           SKY/WX    TMP DP  RH WIND       PRES   REMARKS
PONTIAC        PTCLDY    70  70 100 CALM      29.94R FOG
BLOOMINGTON    PTCLDY    70  68  93 N8        29.95R
DECATUR        CLEAR     72  66  81 W5        29.93S
PEORIA         PTCLDY    70  68  93 N3        29.93S
LACON*         CLOUDY    69  68  96 NE3       29.93F FOG
LINCOLN*       CLEAR     71  67  88 CALM      29.92S
SPRINGFIELD    CLEAR     69  66  90 SW3       29.93S
TAYLORVILLE    CLEAR     67  66  98 MISG      29.94F
$$

ILZ033-039-045-046-055>057-062-063-300600-
EAST-CENTRAL ILLINOIS

CITY           SKY/WX    TMP DP  RH WIND       PRES   REMARKS
CHAMPAIGN      PTCLDY    67  65  93 SW6       29.93S
MATTOON        CLEAR     71  67  87 W3        29.92F
PARIS*         CLEAR     67  67 100 CALM      29.92S
$$

ILZ079-100>102-300600-
SOUTHWEST ILLINOIS

CITY           SKY/WX    TMP DP  RH WIND       PRES   REMARKS
ALTON          PTCLDY    70  68  95 CALM      29.95F
BELLEVILLE     CLOUDY    73  73 100 CALM      29.94R
CAHOKIA*       CLOUDY    74  71  91 S3        29.95R
SPARTA*        LGT RAIN  71  70  96 E6        29.97R
$$

ILZ064>066-069>071-074>076-080>082-084>086-088>090-092>094-300600-
SOUTH-CENTRAL ILLINOIS

CITY           SKY/WX    TMP DP  RH WIND       PRES   REMARKS
CARBONDALE     PTCLDY    74  72  93 SW6       29.94S
CAIRO*         CLEAR     70  70 100 SW5       29.95S
EFFINGHAM*     CLEAR     70  70 100 CALM      29.94F
MARION         MOCLDY    75  73  94 SW5       29.94S
MT. VERNON     CLOUDY    73  68  83 CALM      29.94S
CENTRALIA*     RAIN      74  74  98 W9        29.94R
SALEM*         CLOUDY    74  72  93 CALM      29.94S
METROPOLIS*    CLEAR     73  72  98 CALM      29.95S
$$

ILZ067-068-072-073-078-083-087-091-300600-
SOUTHEAST ILLINOIS

CITY           SKY/WX    TMP DP  RH WIND       PRES   REMARKS
LAWRENCEVILLE  CLEAR     71  70  96 SW3         N/A
FLORA*         CLEAR     73  71  93 CALM      29.92F
FAIRFIELD*     CLOUDY    73  73 100 CALM      29.92S
HARRISBURG*    PTCLDY    73  73 100 CALM      29.94S FOG
ROBINSON*      CLEAR     67  67  98 CALM      29.92F
CARMI*         CLEAR     72  72 100 CALM      29.92S FOG
$$

ABBREVIATIONS USED IN REMARKS
   TC - TEMPERATURE IN CELSIUS
  WCI - WIND CHILL INDEX
   HX - HEAT INDEX
  VSB - VISIBILITY
$$




USA.gov is the U.S. government's official web portal to all federal, state and local government web resources and services.